Content
SEND FEEDBACK

Daily
Averages
Monthly
Summary
United States of America

DUNSMUIR, CALIFORNIA


Home > North America > United States > California
Elevation: 3289 feet     Latitude: 41 12N     Longitude: 122 16W

WEATHER
 
SELECT A DAY
Number of Records: 231,246;   Date Range: 1/1/95 - 7/20/14
 
SHARE

PRINT THIS DATA

[ ← Previous Day ]
WEATHER ALMANAC - SEPTEMBER 25, 2013
[ Next Day → ]
[ °C ]   °F
Weather ElementAverageHighLow
Temperature44.5 °F55.9 °F (12:56 pm)39 °F (5:56 am)
Dewpoint33.7 °F36 °F (3:56 pm)30 °F (11:56 am)
Humidity67.8 %87 % (7:53 pm)39 % (12:56 pm)
Barometer29.95 in30.02 in (7:56 pm)29.90 in (1:56 am)
Wind Speed5 mph10.4 mph (8:36 pm)
Wind Gust23 mph (11:56 pm)
Weather ElementAverage
Visibility9.6 mi
Wind DirectionENE (59.6 °)

Weather ElementTotal
Precipitation0.10 in
Heating Degree Days17.6 (Base 65)
Averaged from 27 records on September 25, 2013
WEATHER CONDITIONS BREAKOUT
WIND DIRECTION BREAKOUT
WEATHER BY HOUR - SEPTEMBER 25, 2013
[ °C ]   °F
Local TimeTemperatureDewpointHumidityBarometerVisibilityWind DirectionWind SpeedGust SpeedPrecipitationEventsConditions
1:56 AM44.1 °F34.0 °F68 %29.90 in10.0 miVariable3.5 mphMostly Cloudy
2:56 AM44.1 °F34.0 °F68 %29.90 in10.0 miVariable4.6 mphMostly Cloudy
3:56 AM43.0 °F32.0 °F65 %29.90 in10.0 miVariable4.6 mphPartly Cloudy
4:56 AM41.0 °F33.1 °F73 %29.91 in10.0 miVariable3.5 mphMostly Cloudy
5:56 AM39.0 °F34.0 °F82 %29.93 in10.0 miVariable3.5 mphScattered Clouds
6:56 AM39.0 °F34.0 °F82 %29.94 in10.0 miCalmPartly Cloudy
7:56 AM39.9 °F34.0 °F79 %29.96 in10.0 miVariable3.5 mphScattered Clouds
8:56 AM46.0 °F30.9 °F56 %29.95 in10.0 miVariable6.9 mphClear
9:56 AM50.0 °F30.9 °F48 %29.96 in10.0 miVariable4.6 mphScattered Clouds
10:56 AM53.1 °F30.9 °F43 %29.95 in10.0 miNorth (10°)8.1 mphScattered Clouds
11:56 AM50.0 °F30.0 °F46 %29.96 in10.0 miVariable5.8 mphOvercast
12:56 PM55.9 °F30.9 °F39 %29.93 in10.0 miCalmPartly Cloudy
1:56 PM55.9 °F32.0 °F40 %29.92 in10.0 miVariable4.6 mphClear
2:56 PM50.0 °F33.1 °F52 %29.95 in10.0 miVariable4.6 mph0.00 inMostly Cloudy
3:56 PM48.0 °F36.0 °F63 %29.96 in9.0 miVariable4.6 mph0.00 inRainLight Rain
4:56 PM48.0 °F33.1 °F56 %29.95 in10.0 miVariable5.8 mph0.00 inPartly Cloudy
5:56 PM44.1 °F33.1 °F65 %29.99 in10.0 miVariable5.8 mphClear
6:56 PM43.0 °F33.1 °F68 %29.99 in10.0 miVariable4.6 mphPartly Cloudy
7:25 PM41.0 °F35.6 °F81 %29.96 in4.0 miVariable4.6 mph0.02 inRainRain
7:53 PM39.2 °F35.6 °F87 %29.95 in10.0 miCalm0.03 inScattered Clouds
7:56 PM39.9 °F36.0 °F86 %30.02 in10.0 miWNW (290°)3.5 mph0.03 inScattered Clouds
8:36 PM41.0 °F35.6 °F81 %29.95 in6.0 miNNW (330°)10.4 mph18.4 mph0.01 inRainRain
8:56 PM41.0 °F36.0 °F82 %30.00 in10.0 miNNW (330°)8.1 mph0.01 inScattered Clouds
9:56 PM41.0 °F35.1 °F79 %29.99 in10.0 miVariable5.8 mph18.4 mphPartly Cloudy
10:56 PM41.0 °F36.0 °F82 %29.99 in10.0 miVariable4.6 mphScattered Clouds
11:03 PM41.0 °F35.6 °F81 %29.95 in10.0 miNNW (330°)9.2 mphMostly Cloudy
11:56 PM41.0 °F35.1 °F79 %30.00 in10.0 miNW (320°)10.4 mph23.0 mphMostly Cloudy
Hourly data recorded from KMHS, located miles away from Dunsmuir, California







STORIES FROM OUR PARTNERS